Year,Month,Day,Hour,Minute,Value (Times are PST for temperature in C)
2011,08,10,00,00,12.00
2011,08,10,00,01,12.00
2011,08,10,00,02,12.00
2011,08,10,00,03,11.90
2011,08,10,00,04,11.90
2011,08,10,00,05,11.90
2011,08,10,00,06,11.90
2011,08,10,00,07,11.90
2011,08,10,00,08,11.90
2011,08,10,00,09,11.90
2011,08,10,00,10,11.80
2011,08,10,00,11,11.80
2011,08,10,00,12,11.80
2011,08,10,00,13,11.80
2011,08,10,00,14,11.80
2011,08,10,00,15,11.80
2011,08,10,00,16,11.80
2011,08,10,00,17,11.80
2011,08,10,00,18,11.80
2011,08,10,00,19,11.80
2011,08,10,00,20,11.80
2011,08,10,00,21,11.80
2011,08,10,00,22,11.80
2011,08,10,00,23,11.70
2011,08,10,00,24,11.70
2011,08,10,00,25,11.70
2011,08,10,00,26,11.70
2011,08,10,00,27,11.70
2011,08,10,00,28,11.70
2011,08,10,00,29,11.60
2011,08,10,00,30,11.60
2011,08,10,00,31,11.60
2011,08,10,00,32,11.60
2011,08,10,00,33,11.60
2011,08,10,00,34,11.60
2011,08,10,00,35,11.60
2011,08,10,00,36,11.60
2011,08,10,00,37,11.60
2011,08,10,00,38,11.60
2011,08,10,00,39,11.60
2011,08,10,00,40,11.50
2011,08,10,00,41,11.50
2011,08,10,00,42,11.50
2011,08,10,00,43,11.50
2011,08,10,00,44,11.50
2011,08,10,00,45,11.50
2011,08,10,00,46,11.50
2011,08,10,00,47,11.50
2011,08,10,00,48,11.50
2011,08,10,00,49,11.50
2011,08,10,00,50,11.50
2011,08,10,00,51,11.40
2011,08,10,00,52,11.40
2011,08,10,00,53,11.40
2011,08,10,00,54,11.40
2011,08,10,00,55,11.40
2011,08,10,00,56,11.40
2011,08,10,00,57,11.40
2011,08,10,00,58,11.40
2011,08,10,00,59,11.40
2011,08,10,01,00,11.40
2011,08,10,01,01,11.40
2011,08,10,01,02,11.30
2011,08,10,01,03,11.30
2011,08,10,01,04,11.30
2011,08,10,01,05,11.30
2011,08,10,01,06,11.30
2011,08,10,01,07,11.30
2011,08,10,01,08,11.30
2011,08,10,01,09,11.30
2011,08,10,01,10,11.20
2011,08,10,01,11,11.20
2011,08,10,01,12,11.20
2011,08,10,01,13,11.20
2011,08,10,01,14,11.20
2011,08,10,01,15,11.20
2011,08,10,01,16,11.20
2011,08,10,01,17,11.20
2011,08,10,01,18,11.10
2011,08,10,01,19,11.10
2011,08,10,01,20,11.10
2011,08,10,01,21,11.10
2011,08,10,01,22,11.10
2011,08,10,01,23,11.10
2011,08,10,01,24,11.10
2011,08,10,01,25,11.10
2011,08,10,01,26,11.10
2011,08,10,01,27,11.10
2011,08,10,01,28,11.10
2011,08,10,01,29,11.10
2011,08,10,01,30,11.10
2011,08,10,01,31,11.10
2011,08,10,01,32,11.10
2011,08,10,01,33,11.20
2011,08,10,01,34,11.20
2011,08,10,01,35,11.20
2011,08,10,01,36,11.20
2011,08,10,01,37,11.20
2011,08,10,01,38,11.20
2011,08,10,01,39,11.20
2011,08,10,01,40,11.20
2011,08,10,01,41,11.30
2011,08,10,01,42,11.30
2011,08,10,01,43,11.30
2011,08,10,01,44,11.30
2011,08,10,01,45,11.30
2011,08,10,01,46,11.40
2011,08,10,01,47,11.40
2011,08,10,01,48,11.40
2011,08,10,01,49,11.40
2011,08,10,01,50,11.40
2011,08,10,01,51,11.50
2011,08,10,01,52,11.50
2011,08,10,01,53,11.50
2011,08,10,01,54,11.50
2011,08,10,01,55,11.60
2011,08,10,01,56,11.60
2011,08,10,01,57,11.60
2011,08,10,01,58,11.60
2011,08,10,01,59,11.60
2011,08,10,02,00,11.70
2011,08,10,02,01,11.70
2011,08,10,02,02,11.70
2011,08,10,02,03,11.70
2011,08,10,02,04,11.70
2011,08,10,02,05,11.70
2011,08,10,02,06,11.70
2011,08,10,02,07,11.70
2011,08,10,02,08,11.70
2011,08,10,02,09,11.70
2011,08,10,02,10,11.70
2011,08,10,02,11,11.70
2011,08,10,02,12,11.70
2011,08,10,02,13,11.70
2011,08,10,02,14,11.70
2011,08,10,02,15,11.70
2011,08,10,02,16,11.70
2011,08,10,02,17,11.80
2011,08,10,02,18,11.70
2011,08,10,02,19,11.80
2011,08,10,02,20,11.80
2011,08,10,02,21,11.80
2011,08,10,02,22,11.80
2011,08,10,02,23,11.80
2011,08,10,02,24,11.80
2011,08,10,02,25,11.80
2011,08,10,02,26,11.80
2011,08,10,02,27,11.80
2011,08,10,02,28,11.80
2011,08,10,02,29,11.80
2011,08,10,02,30,11.80
2011,08,10,02,31,11.80
2011,08,10,02,32,11.90
2011,08,10,02,33,11.90
2011,08,10,02,34,11.90
2011,08,10,02,35,11.90
2011,08,10,02,36,11.90
2011,08,10,02,37,11.90
2011,08,10,02,38,11.90
2011,08,10,02,39,12.00
2011,08,10,02,40,12.00
2011,08,10,02,41,12.00
2011,08,10,02,42,12.00
2011,08,10,02,43,12.00
2011,08,10,02,44,12.00
2011,08,10,02,45,12.00
2011,08,10,02,46,12.00
2011,08,10,02,47,12.10
2011,08,10,02,48,12.10
2011,08,10,02,49,12.10
2011,08,10,02,50,12.10
2011,08,10,02,51,12.10
2011,08,10,02,52,12.10
2011,08,10,02,53,12.10
2011,08,10,02,54,12.10
2011,08,10,02,55,12.10
2011,08,10,02,56,12.20
2011,08,10,02,57,12.20
2011,08,10,02,58,12.20
2011,08,10,02,59,12.20
2011,08,10,03,00,12.10
2011,08,10,03,01,12.10
2011,08,10,03,02,12.10
2011,08,10,03,03,12.10
2011,08,10,03,04,12.10
2011,08,10,03,05,12.10
2011,08,10,03,06,12.10
2011,08,10,03,07,12.10
2011,08,10,03,08,12.10
2011,08,10,03,09,12.10
2011,08,10,03,10,12.10
2011,08,10,03,11,12.10
2011,08,10,03,12,12.10
2011,08,10,03,13,12.10
2011,08,10,03,14,12.10
2011,08,10,03,15,12.10
2011,08,10,03,16,12.10
2011,08,10,03,17,12.00
2011,08,10,03,18,12.00
2011,08,10,03,19,12.00
2011,08,10,03,20,12.00
2011,08,10,03,21,12.00
2011,08,10,03,22,11.90
2011,08,10,03,23,11.90
2011,08,10,03,24,11.90
2011,08,10,03,25,11.90
2011,08,10,03,26,11.90
2011,08,10,03,27,11.90
2011,08,10,03,28,11.90
2011,08,10,03,29,11.90
2011,08,10,03,30,11.90
2011,08,10,03,31,11.90
2011,08,10,03,32,11.90
2011,08,10,03,33,11.90
2011,08,10,03,34,11.90
2011,08,10,03,35,11.90
2011,08,10,03,36,11.90
2011,08,10,03,37,11.90
2011,08,10,03,38,11.90
2011,08,10,03,39,11.90
2011,08,10,03,40,11.90
2011,08,10,03,41,11.90
2011,08,10,03,42,11.80
2011,08,10,03,43,11.90
2011,08,10,03,44,11.80
2011,08,10,03,45,11.80
2011,08,10,03,46,11.80
2011,08,10,03,47,11.80
2011,08,10,03,48,11.80
2011,08,10,03,49,11.80
2011,08,10,03,50,11.80
2011,08,10,03,51,11.80
2011,08,10,03,52,11.80
2011,08,10,03,53,11.80
2011,08,10,03,54,11.80
2011,08,10,03,55,11.80
2011,08,10,03,56,11.80
2011,08,10,03,57,11.80
2011,08,10,03,58,11.80
2011,08,10,03,59,11.80
2011,08,10,04,00,11.80
2011,08,10,04,01,11.80
2011,08,10,04,02,11.80
2011,08,10,04,03,11.80
2011,08,10,04,04,11.80
2011,08,10,04,05,11.80
2011,08,10,04,06,11.80
2011,08,10,04,07,11.80
2011,08,10,04,08,11.80
2011,08,10,04,09,11.80
2011,08,10,04,10,11.80
2011,08,10,04,11,11.80
2011,08,10,04,12,11.80
2011,08,10,04,13,11.80
2011,08,10,04,14,11.80
2011,08,10,04,15,11.80
2011,08,10,04,16,11.80
2011,08,10,04,17,11.80
2011,08,10,04,18,11.80
2011,08,10,04,19,11.80
2011,08,10,04,20,11.70
2011,08,10,04,21,11.70
2011,08,10,04,22,11.70
2011,08,10,04,23,11.70
2011,08,10,04,24,11.70
2011,08,10,04,25,11.70
2011,08,10,04,26,11.70
2011,08,10,04,27,11.70
2011,08,10,04,28,11.70
2011,08,10,04,29,11.70
2011,08,10,04,30,11.70
2011,08,10,04,31,11.70
2011,08,10,04,32,11.70
2011,08,10,04,33,11.70
2011,08,10,04,34,11.70
2011,08,10,04,35,11.70
2011,08,10,04,36,11.70
2011,08,10,04,37,11.70
2011,08,10,04,38,11.70
2011,08,10,04,39,11.70
2011,08,10,04,40,11.70
2011,08,10,04,41,11.70
2011,08,10,04,42,11.70
2011,08,10,04,43,11.70
2011,08,10,04,44,11.70
2011,08,10,04,45,11.70
2011,08,10,04,46,11.70
2011,08,10,04,47,11.70
2011,08,10,04,48,11.70
2011,08,10,04,49,11.70
2011,08,10,04,50,11.70
2011,08,10,04,51,11.70
2011,08,10,04,52,11.70
2011,08,10,04,53,11.80
2011,08,10,04,54,11.80
2011,08,10,04,55,11.80
2011,08,10,04,56,11.80
2011,08,10,04,57,11.80
2011,08,10,04,58,11.80
2011,08,10,04,59,11.80
2011,08,10,05,00,11.80
2011,08,10,05,01,11.80
2011,08,10,05,02,11.80
2011,08,10,05,03,11.80
2011,08,10,05,04,11.80
2011,08,10,05,05,11.80
2011,08,10,05,06,11.80
2011,08,10,05,07,11.80
2011,08,10,05,08,11.80
2011,08,10,05,09,11.80
2011,08,10,05,10,11.80
2011,08,10,05,11,11.80
2011,08,10,05,12,11.80
2011,08,10,05,13,11.80
2011,08,10,05,14,11.80
2011,08,10,05,15,11.80
2011,08,10,05,16,11.80
2011,08,10,05,17,11.80
2011,08,10,05,18,11.80
2011,08,10,05,19,11.80
2011,08,10,05,20,11.80
2011,08,10,05,21,11.80
2011,08,10,05,22,11.80
2011,08,10,05,23,11.90
2011,08,10,05,24,11.90
2011,08,10,05,25,11.90
2011,08,10,05,26,11.90
2011,08,10,05,27,11.80
2011,08,10,05,28,11.90
2011,08,10,05,29,11.90
2011,08,10,05,30,11.80
2011,08,10,05,31,11.80
2011,08,10,05,32,11.80
2011,08,10,05,33,11.80
2011,08,10,05,34,11.80
2011,08,10,05,35,11.80
2011,08,10,05,36,11.80
2011,08,10,05,37,11.80
2011,08,10,05,38,11.80
2011,08,10,05,39,11.80
2011,08,10,05,40,11.80
2011,08,10,05,41,11.80
2011,08,10,05,42,11.80
2011,08,10,05,43,11.80
2011,08,10,05,44,11.80
2011,08,10,05,45,11.80
2011,08,10,05,46,11.80
2011,08,10,05,47,11.80
2011,08,10,05,48,11.80
2011,08,10,05,49,11.80
2011,08,10,05,50,11.80
2011,08,10,05,51,11.80
2011,08,10,05,52,11.80
2011,08,10,05,53,11.80
2011,08,10,05,54,11.80
2011,08,10,05,55,11.80
2011,08,10,05,56,11.80
2011,08,10,05,57,11.80
2011,08,10,05,58,11.80
2011,08,10,05,59,11.80
2011,08,10,06,00,11.70
2011,08,10,06,01,11.80
2011,08,10,06,02,11.70
2011,08,10,06,03,11.70
2011,08,10,06,04,11.70
2011,08,10,06,05,11.80
2011,08,10,06,06,11.80
2011,08,10,06,07,11.80
2011,08,10,06,08,11.80
2011,08,10,06,09,11.80
2011,08,10,06,10,11.80
2011,08,10,06,11,11.70
2011,08,10,06,12,11.80
2011,08,10,06,13,11.80
2011,08,10,06,14,11.80
2011,08,10,06,15,11.80
2011,08,10,06,16,11.80
2011,08,10,06,17,11.80
2011,08,10,06,18,11.80
2011,08,10,06,19,11.80
2011,08,10,06,20,11.80
2011,08,10,06,21,11.80
2011,08,10,06,22,11.80
2011,08,10,06,23,11.70
2011,08,10,06,24,11.70
2011,08,10,06,25,11.70
2011,08,10,06,26,11.70
2011,08,10,06,27,11.80
2011,08,10,06,28,11.80
2011,08,10,06,29,11.80
2011,08,10,06,30,11.80
2011,08,10,06,31,11.80
2011,08,10,06,32,11.80
2011,08,10,06,33,11.80
2011,08,10,06,34,11.80
2011,08,10,06,35,11.80
2011,08,10,06,36,11.80
2011,08,10,06,37,11.70
2011,08,10,06,38,11.70
2011,08,10,06,39,11.70
2011,08,10,06,40,11.70
2011,08,10,06,41,11.70
2011,08,10,06,42,11.80
2011,08,10,06,43,11.70
2011,08,10,06,44,11.80
2011,08,10,06,45,11.80
2011,08,10,06,46,11.80
2011,08,10,06,47,11.80
2011,08,10,06,48,11.80
2011,08,10,06,49,11.80
2011,08,10,06,50,11.80
2011,08,10,06,51,11.90
2011,08,10,06,52,11.90
2011,08,10,06,53,11.90
2011,08,10,06,54,11.90
2011,08,10,06,55,12.00
2011,08,10,06,56,12.00
2011,08,10,06,57,12.00
2011,08,10,06,58,12.00
2011,08,10,06,59,12.10
2011,08,10,07,00,12.10
2011,08,10,07,01,12.10
2011,08,10,07,02,12.10
2011,08,10,07,03,12.20
2011,08,10,07,04,12.20
2011,08,10,07,05,12.20
2011,08,10,07,06,12.30
2011,08,10,07,07,12.30
2011,08,10,07,08,12.30
2011,08,10,07,09,12.30
2011,08,10,07,10,12.40
2011,08,10,07,11,12.40
2011,08,10,07,12,12.40
2011,08,10,07,13,12.50
2011,08,10,07,14,12.50
2011,08,10,07,15,12.50
2011,08,10,07,16,12.60
2011,08,10,07,17,12.60
2011,08,10,07,18,12.60
2011,08,10,07,19,12.60
2011,08,10,07,20,12.70
2011,08,10,07,21,12.70
2011,08,10,07,22,12.70
2011,08,10,07,23,12.70
2011,08,10,07,24,12.80
2011,08,10,07,25,12.80
2011,08,10,07,26,12.80
2011,08,10,07,27,12.80
2011,08,10,07,28,12.80
2011,08,10,07,29,12.90
2011,08,10,07,30,12.90
2011,08,10,07,31,12.90
2011,08,10,07,32,12.90
2011,08,10,07,33,13.00
2011,08,10,07,34,13.00
2011,08,10,07,35,13.00
2011,08,10,07,36,13.00
2011,08,10,07,37,13.00
2011,08,10,07,38,13.00
2011,08,10,07,39,13.10
2011,08,10,07,40,13.10
2011,08,10,07,41,13.10
2011,08,10,07,42,13.10
2011,08,10,07,43,13.10
2011,08,10,07,44,13.10
2011,08,10,07,45,13.20
2011,08,10,07,46,13.20
2011,08,10,07,47,13.20
2011,08,10,07,48,13.20
2011,08,10,07,49,13.20
2011,08,10,07,50,13.20
2011,08,10,07,51,13.20
2011,08,10,07,52,13.20
2011,08,10,07,53,13.30
2011,08,10,07,54,13.30
2011,08,10,07,55,13.30
2011,08,10,07,56,13.30
2011,08,10,07,57,13.30
2011,08,10,07,58,13.30
2011,08,10,07,59,13.30
2011,08,10,08,00,13.30
2011,08,10,08,01,13.30
2011,08,10,08,02,13.30
2011,08,10,08,03,13.30
2011,08,10,08,04,13.30
2011,08,10,08,05,13.30
2011,08,10,08,06,13.30
2011,08,10,08,07,13.40
2011,08,10,08,08,13.40
2011,08,10,08,09,13.40
2011,08,10,08,10,13.40
2011,08,10,08,11,13.40
2011,08,10,08,12,13.40
2011,08,10,08,13,13.40
2011,08,10,08,14,13.40
2011,08,10,08,15,13.40
2011,08,10,08,16,13.40
2011,08,10,08,17,13.40
2011,08,10,08,18,13.40
2011,08,10,08,19,13.50
2011,08,10,08,20,13.50
2011,08,10,08,21,13.50
2011,08,10,08,22,13.50
2011,08,10,08,23,13.50
2011,08,10,08,24,13.50
2011,08,10,08,25,13.60
2011,08,10,08,26,13.60
2011,08,10,08,27,13.60
2011,08,10,08,28,13.60
2011,08,10,08,29,13.60
2011,08,10,08,30,13.60
2011,08,10,08,31,13.60
2011,08,10,08,32,13.60
2011,08,10,08,33,13.60
2011,08,10,08,34,13.60
2011,08,10,08,35,13.60
2011,08,10,08,36,13.60
2011,08,10,08,37,13.60
2011,08,10,08,38,13.70
2011,08,10,08,39,13.60
2011,08,10,08,40,13.60
2011,08,10,08,41,13.60
2011,08,10,08,42,13.70
2011,08,10,08,43,13.60
2011,08,10,08,44,13.70
2011,08,10,08,45,13.70
2011,08,10,08,46,13.70
2011,08,10,08,47,13.70
2011,08,10,08,48,13.70
2011,08,10,08,49,13.70
2011,08,10,08,50,13.70
2011,08,10,08,51,13.70
2011,08,10,08,52,13.70
2011,08,10,08,53,13.80
2011,08,10,08,54,13.80
2011,08,10,08,55,13.80
2011,08,10,08,56,13.80
2011,08,10,08,57,13.80
2011,08,10,08,58,13.80
2011,08,10,08,59,13.80
2011,08,10,09,00,13.80
2011,08,10,09,01,13.90
2011,08,10,09,02,13.90
2011,08,10,09,03,13.90
2011,08,10,09,04,13.90
2011,08,10,09,05,13.90
2011,08,10,09,06,13.90
2011,08,10,09,07,13.90
2011,08,10,09,08,13.90
2011,08,10,09,09,13.90
2011,08,10,09,10,13.80
2011,08,10,09,11,13.90
2011,08,10,09,12,13.90
2011,08,10,09,13,13.90
2011,08,10,09,14,13.90
2011,08,10,09,15,13.90
2011,08,10,09,16,13.90
2011,08,10,09,17,13.90
2011,08,10,09,18,13.90
2011,08,10,09,19,13.90
2011,08,10,09,20,13.90
2011,08,10,09,21,13.90
2011,08,10,09,22,13.90
2011,08,10,09,23,13.90
2011,08,10,09,24,13.90
2011,08,10,09,25,13.90
2011,08,10,09,26,13.90
2011,08,10,09,27,13.90
2011,08,10,09,28,13.90
2011,08,10,09,29,13.90
2011,08,10,09,30,14.00
2011,08,10,09,31,14.00
2011,08,10,09,32,14.00
2011,08,10,09,33,14.00
2011,08,10,09,34,14.10
2011,08,10,09,35,14.10
2011,08,10,09,36,14.10
2011,08,10,09,37,14.00
2011,08,10,09,38,14.00
2011,08,10,09,39,14.00
2011,08,10,09,40,13.90
2011,08,10,09,41,13.90
2011,08,10,09,42,13.90
2011,08,10,09,43,13.90
2011,08,10,09,44,13.90
2011,08,10,09,45,13.90
2011,08,10,09,46,13.90
2011,08,10,09,47,13.90
2011,08,10,09,48,13.90
2011,08,10,09,49,13.90
2011,08,10,09,50,13.90
2011,08,10,09,51,13.90
2011,08,10,09,52,13.90
2011,08,10,09,53,13.90
2011,08,10,09,54,13.90
2011,08,10,09,55,13.90
2011,08,10,09,56,13.90
2011,08,10,09,57,14.00
2011,08,10,09,58,14.00
2011,08,10,09,59,14.00
2011,08,10,10,00,14.00
2011,08,10,10,01,14.00
2011,08,10,10,02,14.00
2011,08,10,10,03,14.10
2011,08,10,10,04,14.10
2011,08,10,10,05,14.10
2011,08,10,10,06,14.00
2011,08,10,10,07,14.00
2011,08,10,10,08,14.10
2011,08,10,10,09,14.10
2011,08,10,10,10,14.20
2011,08,10,10,11,14.20
2011,08,10,10,12,14.20
2011,08,10,10,13,14.20
2011,08,10,10,14,14.30
2011,08,10,10,15,14.30
2011,08,10,10,16,14.30
2011,08,10,10,17,14.30
2011,08,10,10,18,14.30
2011,08,10,10,19,14.30
2011,08,10,10,20,14.40
2011,08,10,10,21,14.40
2011,08,10,10,22,14.50
2011,08,10,10,23,14.60
2011,08,10,10,24,14.60
2011,08,10,10,25,14.70
2011,08,10,10,26,14.70
2011,08,10,10,27,14.70
2011,08,10,10,28,14.70
2011,08,10,10,29,14.70
2011,08,10,10,30,14.80
2011,08,10,10,31,14.80
2011,08,10,10,32,14.80
2011,08,10,10,33,14.80
2011,08,10,10,34,14.80
2011,08,10,10,35,14.80
2011,08,10,10,36,14.70
2011,08,10,10,37,14.70
2011,08,10,10,38,14.60
2011,08,10,10,39,14.60
2011,08,10,10,40,14.60
2011,08,10,10,41,14.50
2011,08,10,10,42,14.50
2011,08,10,10,43,14.40
2011,08,10,10,44,14.40
2011,08,10,10,45,14.40
2011,08,10,10,46,14.40
2011,08,10,10,47,14.40
2011,08,10,10,48,14.40
2011,08,10,10,49,14.40
2011,08,10,10,50,14.40
2011,08,10,10,51,14.40
2011,08,10,10,52,14.40
2011,08,10,10,53,14.40
2011,08,10,10,54,14.40
2011,08,10,10,55,14.40
2011,08,10,10,56,14.40
2011,08,10,10,57,14.40
2011,08,10,10,58,14.40
2011,08,10,10,59,14.40
2011,08,10,11,00,14.50
2011,08,10,11,01,14.50
2011,08,10,11,02,14.50
2011,08,10,11,03,14.50
2011,08,10,11,04,14.50
2011,08,10,11,05,14.50
2011,08,10,11,06,14.60
2011,08,10,11,07,14.60
2011,08,10,11,08,14.60
2011,08,10,11,09,14.60
2011,08,10,11,10,14.60
2011,08,10,11,11,14.70
2011,08,10,11,12,14.70
2011,08,10,11,13,14.70
2011,08,10,11,14,14.70
2011,08,10,11,15,14.70
2011,08,10,11,16,14.70
2011,08,10,11,17,14.70
2011,08,10,11,18,14.70
2011,08,10,11,19,14.60
2011,08,10,11,20,14.70
2011,08,10,11,21,14.70
2011,08,10,11,22,14.60
2011,08,10,11,23,14.60
2011,08,10,11,24,14.70
2011,08,10,11,25,14.70
2011,08,10,11,26,14.70
2011,08,10,11,27,14.70
2011,08,10,11,28,14.80
2011,08,10,11,29,14.80
2011,08,10,11,30,14.80
2011,08,10,11,31,14.90
2011,08,10,11,32,15.00
2011,08,10,11,33,15.10
2011,08,10,11,34,15.10
2011,08,10,11,35,15.20
2011,08,10,11,36,15.30
2011,08,10,11,37,15.30
2011,08,10,11,38,15.40
2011,08,10,11,39,15.40
2011,08,10,11,40,15.40
2011,08,10,11,41,15.50
2011,08,10,11,42,15.50
2011,08,10,11,43,15.50
2011,08,10,11,44,15.60
2011,08,10,11,45,15.60
2011,08,10,11,46,15.60
2011,08,10,11,47,15.60
2011,08,10,11,48,15.60
2011,08,10,11,49,15.70
2011,08,10,11,50,15.70
2011,08,10,11,51,15.70
2011,08,10,11,52,15.80
2011,08,10,11,53,15.80
2011,08,10,11,54,15.90
2011,08,10,11,55,15.90
2011,08,10,11,56,16.00
2011,08,10,11,57,16.10
2011,08,10,11,58,16.10
2011,08,10,11,59,16.10
2011,08,10,12,00,16.20
2011,08,10,12,01,16.20
2011,08,10,12,02,16.30
2011,08,10,12,03,16.40
2011,08,10,12,04,16.40
2011,08,10,12,05,16.50
2011,08,10,12,06,16.50
2011,08,10,12,07,16.60
2011,08,10,12,08,16.60
2011,08,10,12,09,16.60
2011,08,10,12,10,16.60
2011,08,10,12,11,16.60
2011,08,10,12,12,16.60
2011,08,10,12,13,16.50
2011,08,10,12,14,16.40
2011,08,10,12,15,16.40
2011,08,10,12,16,16.30
2011,08,10,12,17,16.20
2011,08,10,12,18,16.10
2011,08,10,12,19,16.00
2011,08,10,12,20,16.00
2011,08,10,12,21,15.90
2011,08,10,12,22,15.90
2011,08,10,12,23,15.90
2011,08,10,12,24,15.90
2011,08,10,12,25,15.90
2011,08,10,12,26,15.80
2011,08,10,12,27,15.80
2011,08,10,12,28,15.80
2011,08,10,12,29,15.80
2011,08,10,12,30,15.80
2011,08,10,12,31,15.80
2011,08,10,12,32,15.80
2011,08,10,12,33,15.80
2011,08,10,12,34,15.80
2011,08,10,12,35,15.90
2011,08,10,12,36,15.90
2011,08,10,12,37,15.90
2011,08,10,12,38,15.90
2011,08,10,12,39,16.00
2011,08,10,12,40,16.10
2011,08,10,12,41,16.10
2011,08,10,12,42,16.10
2011,08,10,12,43,16.10
2011,08,10,12,44,16.20
2011,08,10,12,45,16.20
2011,08,10,12,46,16.20
2011,08,10,12,47,16.30
2011,08,10,12,48,16.30
2011,08,10,12,49,16.30
2011,08,10,12,50,16.30
2011,08,10,12,51,16.30
2011,08,10,12,52,16.30
2011,08,10,12,53,16.30
2011,08,10,12,54,16.30
2011,08,10,12,55,16.30
2011,08,10,12,56,16.30
2011,08,10,12,57,16.20
2011,08,10,12,58,16.20
2011,08,10,12,59,16.20
2011,08,10,13,00,16.20
2011,08,10,13,01,16.20
2011,08,10,13,02,16.20
2011,08,10,13,03,16.20
2011,08,10,13,04,16.20
2011,08,10,13,05,16.30
2011,08,10,13,06,16.30
2011,08,10,13,07,16.30
2011,08,10,13,08,16.40
2011,08,10,13,09,16.40
2011,08,10,13,10,16.40
2011,08,10,13,11,16.40
2011,08,10,13,12,16.40
2011,08,10,13,13,16.30
2011,08,10,13,14,16.30
2011,08,10,13,15,16.30
2011,08,10,13,16,16.30
2011,08,10,13,17,16.30
2011,08,10,13,18,16.30
2011,08,10,13,19,16.30
2011,08,10,13,20,16.30
2011,08,10,13,21,16.30
2011,08,10,13,22,16.20
2011,08,10,13,23,16.20
2011,08,10,13,24,16.20
2011,08,10,13,25,16.20
2011,08,10,13,26,16.20
2011,08,10,13,27,16.20
2011,08,10,13,28,16.30
2011,08,10,13,29,16.30
2011,08,10,13,30,16.30
2011,08,10,13,31,16.40
2011,08,10,13,32,16.40
2011,08,10,13,33,16.40
2011,08,10,13,34,16.30
2011,08,10,13,35,16.30
2011,08,10,13,36,16.30
2011,08,10,13,37,16.30
2011,08,10,13,38,16.30
2011,08,10,13,39,16.30
2011,08,10,13,40,16.40
2011,08,10,13,41,16.40
2011,08,10,13,42,16.40
2011,08,10,13,43,16.50
2011,08,10,13,44,16.50
2011,08,10,13,45,16.60
2011,08,10,13,46,16.60
2011,08,10,13,47,16.70
2011,08,10,13,48,16.70
2011,08,10,13,49,16.70
2011,08,10,13,50,16.70
2011,08,10,13,51,16.80
2011,08,10,13,52,16.80
2011,08,10,13,53,16.80
2011,08,10,13,54,16.80
2011,08,10,13,55,16.80
2011,08,10,13,56,16.80
2011,08,10,13,57,16.80
2011,08,10,13,58,16.80
2011,08,10,13,59,16.80
2011,08,10,14,00,16.80
2011,08,10,14,01,16.80
2011,08,10,14,02,16.80
2011,08,10,14,03,16.80
2011,08,10,14,04,16.80
2011,08,10,14,05,16.70
2011,08,10,14,06,16.70
2011,08,10,14,07,16.70
2011,08,10,14,08,16.70
2011,08,10,14,09,16.70
2011,08,10,14,10,16.70
2011,08,10,14,11,16.70
2011,08,10,14,12,16.70
2011,08,10,14,13,16.70
2011,08,10,14,14,16.70
2011,08,10,14,15,16.60
2011,08,10,14,16,16.60
2011,08,10,14,17,16.60
2011,08,10,14,18,16.60
2011,08,10,14,19,16.50
2011,08,10,14,20,16.50
2011,08,10,14,21,16.50
2011,08,10,14,22,16.50
2011,08,10,14,23,16.50
2011,08,10,14,24,16.50
2011,08,10,14,25,16.60
2011,08,10,14,26,16.60
2011,08,10,14,27,16.60
2011,08,10,14,28,16.70
2011,08,10,14,29,16.70
2011,08,10,14,30,16.70
2011,08,10,14,31,16.70
2011,08,10,14,32,16.70
2011,08,10,14,33,16.80
2011,08,10,14,34,16.80
2011,08,10,14,35,16.80
2011,08,10,14,36,16.70
2011,08,10,14,37,16.70
2011,08,10,14,38,16.70
2011,08,10,14,39,16.70
2011,08,10,14,40,16.70
2011,08,10,14,41,16.70
2011,08,10,14,42,16.70
2011,08,10,14,43,16.70
2011,08,10,14,44,16.70
2011,08,10,14,45,16.70
2011,08,10,14,46,16.70
2011,08,10,14,47,16.70
2011,08,10,14,48,16.70
2011,08,10,14,49,16.70
2011,08,10,14,50,16.80
2011,08,10,14,51,16.80
2011,08,10,14,52,16.90
2011,08,10,14,53,16.90
2011,08,10,14,54,17.00
2011,08,10,14,55,17.00
2011,08,10,14,56,17.10
2011,08,10,14,57,17.10
2011,08,10,14,58,17.10
2011,08,10,14,59,17.10
2011,08,10,15,00,17.20
2011,08,10,15,01,17.20
2011,08,10,15,02,17.20
2011,08,10,15,03,17.20
2011,08,10,15,04,17.20
2011,08,10,15,05,17.20
2011,08,10,15,06,17.20
2011,08,10,15,07,17.20
2011,08,10,15,08,17.20
2011,08,10,15,09,17.30
2011,08,10,15,10,17.30
2011,08,10,15,11,17.30
2011,08,10,15,12,17.30
2011,08,10,15,13,17.30
2011,08,10,15,14,17.40
2011,08,10,15,15,17.40
2011,08,10,15,16,17.40
2011,08,10,15,17,17.40
2011,08,10,15,18,17.50
2011,08,10,15,19,17.50
2011,08,10,15,20,17.50
2011,08,10,15,21,17.60
2011,08,10,15,22,17.60
2011,08,10,15,23,17.60
2011,08,10,15,24,17.60
2011,08,10,15,25,17.70
2011,08,10,15,26,17.80
2011,08,10,15,27,17.90
2011,08,10,15,28,17.90
2011,08,10,15,29,17.90
2011,08,10,15,30,17.90
2011,08,10,15,31,17.90
2011,08,10,15,32,17.90
2011,08,10,15,33,17.90
2011,08,10,15,34,17.90
2011,08,10,15,35,17.80
2011,08,10,15,36,17.80
2011,08,10,15,37,17.70
2011,08,10,15,38,17.70
2011,08,10,15,39,17.70
2011,08,10,15,40,17.60
2011,08,10,15,41,17.60
2011,08,10,15,42,17.60
2011,08,10,15,43,17.50
2011,08,10,15,44,17.50
2011,08,10,15,45,17.50
2011,08,10,15,46,17.60
2011,08,10,15,47,17.60
2011,08,10,15,48,17.60
2011,08,10,15,49,17.70
2011,08,10,15,50,17.80
2011,08,10,15,51,17.80
2011,08,10,15,52,17.80
2011,08,10,15,53,17.80
2011,08,10,15,54,17.80
2011,08,10,15,55,17.90
2011,08,10,15,56,17.90
2011,08,10,15,57,18.00
2011,08,10,15,58,18.00
2011,08,10,15,59,18.10
2011,08,10,16,00,18.10
2011,08,10,16,01,18.20
2011,08,10,16,02,18.20
2011,08,10,16,03,18.20
2011,08,10,16,04,18.20
2011,08,10,16,05,18.20
2011,08,10,16,06,18.20
2011,08,10,16,07,18.10
2011,08,10,16,08,18.10
2011,08,10,16,09,18.00
2011,08,10,16,10,18.00
2011,08,10,16,11,18.00
2011,08,10,16,12,18.00
2011,08,10,16,13,18.00
2011,08,10,16,14,17.90
2011,08,10,16,15,17.90
2011,08,10,16,16,17.80
2011,08,10,16,17,17.70
2011,08,10,16,18,17.60
2011,08,10,16,19,17.60
2011,08,10,16,20,17.60
2011,08,10,16,21,17.50
2011,08,10,16,22,17.50
2011,08,10,16,23,17.50
2011,08,10,16,24,17.40
2011,08,10,16,25,17.40
2011,08,10,16,26,17.30
2011,08,10,16,27,17.30
2011,08,10,16,28,17.30
2011,08,10,16,29,17.30
2011,08,10,16,30,17.30
2011,08,10,16,31,17.30
2011,08,10,16,32,17.30
2011,08,10,16,33,17.30
2011,08,10,16,34,17.30
2011,08,10,16,35,17.30
2011,08,10,16,36,17.30
2011,08,10,16,37,17.30
2011,08,10,16,38,17.30
2011,08,10,16,39,17.40
2011,08,10,16,40,17.40
2011,08,10,16,41,17.40
2011,08,10,16,42,17.40
2011,08,10,16,43,17.40
2011,08,10,16,44,17.40
2011,08,10,16,45,17.30
2011,08,10,16,46,17.30
2011,08,10,16,47,17.20
2011,08,10,16,48,17.20
2011,08,10,16,49,17.10
2011,08,10,16,50,17.10
2011,08,10,16,51,17.10
2011,08,10,16,52,17.10
2011,08,10,16,53,17.10
2011,08,10,16,54,17.00
2011,08,10,16,55,17.00
2011,08,10,16,56,17.00
2011,08,10,16,57,17.00
2011,08,10,16,58,17.10
2011,08,10,16,59,17.10
2011,08,10,17,00,17.10
2011,08,10,17,01,17.20
2011,08,10,17,02,17.20
2011,08,10,17,03,17.20
2011,08,10,17,04,17.30
2011,08,10,17,05,17.30
2011,08,10,17,06,17.30
2011,08,10,17,07,17.30
2011,08,10,17,08,17.30
2011,08,10,17,09,17.30
2011,08,10,17,10,17.30
2011,08,10,17,11,17.30
2011,08,10,17,12,17.30
2011,08,10,17,13,17.30
2011,08,10,17,14,17.40
2011,08,10,17,15,17.40
2011,08,10,17,16,17.40
2011,08,10,17,17,17.40
2011,08,10,17,18,17.40
2011,08,10,17,19,17.40